[TLELIST] Archives

 

Current TLEs

March 22nd 2007 PDT

HST 1 20580U 90037B 07080.65996494 .00000343 00000-0 13781-4 0 8343 2 20580 028.4669 040.8566 0003705 244.6905 115.3292 15.00208075726800 ISS (ZARYA) 1 25544U 98067A 07081.44695174 .00013794 00000-0 83468-4 0 8723 2 25544 051.6348 192.1525 0014629 338.6659 145.5594 15.77812965477075 CXO 1 25867U 99040B 07080.37500000 .00000320 00000-0 00000+0 0 489 2 25867 061.3726 091.1750 6114003 285.6701 355.2135 00.37808280 1924 ____________________________________________________________________ These 2-Line ...Continue Reading

Current TLEs

March 21st 2007 PDT

HST 1 20580U 90037B 07078.66416733 +.00000392 +00000-0 +17604-4 0 08380 2 20580 028.4667 053.8703 0003704 223.3347 136.6949 15.00207572726501 ISS (ZARYA) 1 25544U 98067A 07080.48219324 .00014700 00000-0 88775-4 0 8651 2 25544 051.6347 197.1356 0014576 334.9263 065.6951 15.77788385476922 CXO 1 25867U 99040B 07080.37500000 .00000320 00000-0 00000+0 0 489 2 25867 061.3726 091.1750 6114003 285.6701 355.2135 00.37808280 1924 ____________________________________________________________________ These 2-Line ...Continue Reading

Current TLEs

March 20th 2007 PDT

HST 1 20580U 90037B 07077.66626843 +.00000406 +00000-0 +18658-4 0 08481 2 20580 028.4666 060.3774 0003748 212.8535 147.1820 15.00207188726352 ISS (ZARYA) 1 25544U 98067A 07079.47696443 .00013473 00000-0 81834-4 0 8586 2 25544 051.6320 202.3312 0014553 330.5186 116.5547 15.77755352476762 CXO 1 25867U 99040B 07077.33333333 .00000400 00000-0 00000+0 0 472 2 25867 061.3444 091.2673 6111067 285.6708 301.2104 00.37810185 1913 ____________________________________________________________________ These 2-Line ...Continue Reading

Current TLEs

March 19th 2007 PDT

HST 1 20580U 90037B 07078.19848125 .00000393 00000-0 17677-4 0 8327 2 20580 028.4668 056.9065 0003758 218.5575 141.4756 15.00207375726438 ISS (ZARYA) 1 25544U 98067A 07078.47060269 .00015876 00000-0 95816-4 0 8524 2 25544 051.6343 207.5271 0014269 326.5592 160.6475 15.77729988476607 CXO 1 25867U 99040B 07077.33333333 .00000400 00000-0 00000+0 0 472 2 25867 061.3444 091.2673 6111067 285.6708 301.2104 00.37810185 1913 ____________________________________________________________________ These 2-Line ...Continue Reading

Current TLEs

March 18th 2007 PDT

HST 1 20580U 90037B 07076.80142273 .00000401 00000-0 18271-4 0 8314 2 20580 028.4666 066.0158 0003739 203.7553 156.2862 15.00206728726222 ISS (ZARYA) 1 25544U 98067A 07077.44890258 .00015858 00000-0 95845-4 0 8453 2 25544 051.6339 212.8037 0014412 322.3799 117.8794 15.77696323476440 CXO 1 25867U 99040B 07077.33333333 .00000400 00000-0 00000+0 0 472 2 25867 061.3444 091.2673 6111067 285.6708 301.2104 00.37810185 1913 ____________________________________________________________________ These 2-Line ...Continue Reading

Current TLEs

March 17th 2007 PDT

HST 1 20580U 90037B 07075.53741650 .00000422 00000-0 19939-4 0 8301 2 20580 028.4665 074.2568 0003820 190.8800 169.1700 15.00206295726031 ISS (ZARYA) 1 25544U 98067A 07076.49251561 .00003326 00000-0 23354-4 0 8380 2 25544 051.6340 217.7446 0014355 316.0737 088.5614 15.77651351476298 CXO 1 25867U 99040B 07075.08333333 .00000396 00000-0 00000+0 0 465 2 25867 061.3262 091.3233 6106266 285.6683 354.9821 00.37805976 1903 ____________________________________________________________________ These 2-Line ...Continue Reading

Current TLEs

March 16th 2007 PDT

HST 1 20580U 90037B 07073.80772393 +.00000429 +00000-0 +20460-4 0 08462 2 20580 028.4663 085.5329 0003845 172.7418 187.3222 15.00205375725779 ISS (ZARYA) 1 25544U 98067A 07075.47894024 .01259103 00000-0 65392-2 0 8309 2 25544 051.8328 223.2260 0011155 137.3259 266.9206 15.77912724476136 CXO 1 25867U 99040B 07075.08333333 .00000396 00000-0 00000+0 0 465 2 25867 061.3262 091.3233 6106266 285.6683 354.9821 00.37805976 1903 ____________________________________________________________________ These 2-Line ...Continue Reading

Current TLEs

March 15th 2007 PDT

HST 1 20580U 90037B 07074.20688371 .00000445 00000-0 21747-4 0 8297 2 20580 028.4664 082.9307 0003830 177.1961 182.8649 15.00205722725839 ISS (ZARYA) 1 25544U 98067A 07074.46804565 .00021586 00000-0 11882-3 0 8248 2 25544 051.6322 228.2030 0020640 320.8161 093.9623 15.79362962475975 CXO 1 25867U 99040B 07075.08333333 .00000396 00000-0 00000+0 0 465 2 25867 061.3262 091.3233 6106266 285.6683 354.9821 00.37805976 1903 ____________________________________________________________________ These 2-Line ...Continue Reading

Current TLEs

March 14th 2007 PDT

HST 1 20580U 90037B 07072.87635058 .00000432 00000-0 20715-4 0 8281 2 20580 028.4661 091.6048 0003843 163.0874 196.9843 15.00204877725636 ISS (ZARYA) 1 25544U 98067A 07073.45474503 .00021567 00000-0 11895-3 0 8176 2 25544 051.6326 233.4491 0020762 316.9167 092.6959 15.79316462475810 CXO 1 25867U 99040B 07072.45833333 .00000369 00000-0 00000+0 0 457 2 25867 061.3118 091.3756 6101066 285.7060 357.6202 00.37804449 1891 ____________________________________________________________________ These 2-Line ...Continue Reading

Current TLEs

March 13th 2007 PDT

HST 1 20580U 90037B 07070.88054899 +.00000433 +00000-0 +20840-4 0 08390 2 20580 028.4658 104.6171 0003889 143.4968 216.5881 15.00203791725332 ISS (ZARYA) 1 25544U 98067A 07072.44092633 .00019276 00000-0 10701-3 0 8106 2 25544 051.6327 238.6960 0020661 312.6535 089.0255 15.79267155475654 CXO 1 25867U 99040B 07072.45833333 .00000369 00000-0 00000+0 0 457 2 25867 061.3118 091.3756 6101066 285.7060 357.6202 00.37804449 1891 ____________________________________________________________________ These 2-Line ...Continue Reading
  • This mailing list is a public mailing list - anyone may join or leave, at any time.
  • This mailing list is announce-only.

International Space Station (ISS) / Hubble Space Telescope (HST) / Chandra X-Ray Observatory Orbital Data via EMAIL

Privacy Policy:

Private list